Simultaneous Nadir Overpasses (SNOs) Predictions

Prediction of SNOs between AQUA and METOP-B Satellite Orbit:

Table of predicted SNOs for the next 14.0 days since TLE Epoch: 6/30/2017
Index Date (AQUA) Time (AQUA) Lat,Lon (AQUA) SZA (AQUA ) Date (METOP-B) Time (METOP-B) Lat,Lon (METOP-B) SZA (METOP-B ) Distance(km) Time Diff (sec)
1 07/02/2017 20:39:35 -73.77, 44.43 129.16 07/02/2017 20:38:21 -73.77, 44.53 129.16 3.30 74
2 07/02/2017 21:29:03 73.80,-148.00 50.88 07/02/2017 21:29:00 73.82,-148.00 50.90 1.98 3
3 07/02/2017 22:18:30 -73.87, 19.49 129.05 07/02/2017 22:19:40 -73.89, 19.49 129.04 2.46 70
4 07/05/2017 16:13:49 -73.75, 110.91 128.93 07/05/2017 16:12:41 -73.75, 110.91 128.91 0.09 68
5 07/05/2017 17:03:17 73.79, -81.55 51.13 07/05/2017 17:03:20 73.80, -81.64 51.14 3.17 3
6 07/05/2017 17:52:46 -73.95, 85.74 128.70 07/05/2017 17:53:58 -73.98, 86.10 128.70 11.50 72
7 07/08/2017 11:48:04 -73.74, 177.37 128.63 07/08/2017 11:47:02 -73.73, 177.27 128.62 3.12 62
8 07/08/2017 12:37:33 73.84, -15.21 51.48 07/08/2017 12:37:40 73.83, -15.16 51.47 1.69 7
9 07/08/2017 13:27:05 -74.15, 151.73 128.18 07/08/2017 13:28:15 -74.16, 152.95 128.23 37.08 70
10 07/11/2017 07:22:20 -73.78,-116.29 128.23 07/11/2017 07:21:22 -73.77,-116.24 128.23 2.10 58
11 07/11/2017 08:11:48 73.84, 51.23 51.84 07/11/2017 08:12:01 73.81, 51.19 51.81 3.39 13
12 07/11/2017 09:01:24 -74.34,-142.29 127.61 07/11/2017 09:02:32 -74.33,-140.19 127.71 63.15 68
13 07/14/2017 02:56:34 -73.78, -49.84 127.83 07/14/2017 02:55:41 -73.80, -49.76 127.80 3.20 53
14 07/14/2017 03:46:02 73.84, 117.66 52.25 07/14/2017 03:46:20 73.84, 117.66 52.24 0.72 18




NCC Satellite Simultaneous Nadir Overpasses (SNOs) Prediction Service
